Buckland, AK

3:02 PM AKDT on July 26, 2017 (GMT -0800)
Buckland

Weather History for PABL - October, 2013

Change the Weather History Date:

Monday, October 7, 2013

  Actual Average (PASK) Record (PASK)
Temperature  
Mean Temperature 36 °F -  
Max Temperature 41 °F 31 °F 46 °F (2003)
Min Temperature 30 °F 23 °F 12 °F (2000)
Degree Days  
Heating Degree Days 30    
Moisture  
Dew Point 32 °F    
Average Humidity 83    
Maximum Humidity 93    
Minimum Humidity 70    
Precipitation  
Precipitation 0.00 in - - ()
Sea Level Pressure  
Sea Level Pressure 29.62 in    
Wind  
Wind Speed 6 mph (SE)    
Max Wind Speed 15 mph    
Max Gust Speed 22 mph    
Visibility 10 miles    
Events      
Averages and records for this station are not official NWS values.
T = Trace of Precipitation, MM = Missing Value Source: NWS Daily Summary

Daily Weather History Graph

Daily Weather History Graph

Search for Another Location

Airport or City:

Trip Planner

Search our weather history database for the weather conditions in past years. The results will help you decide how hot, cold, wet, or windy it might be!

Date:

Astronomy

Oct. 07, 2013 Rise Set
Actual Time 9:16 AM AKDT 7:46 PM AKDT
Civil Twilight 8:24 AM AKDT 8:37 PM AKDT
Nautical Twilight 7:25 AM AKDT 9:37 PM AKDT
Astronomical Twilight 6:21 AM AKDT 10:39 PM AKDT
Moon 1:49 PM AKDT (10/7) 8:07 PM AKDT (10/7)
Length of Visible Light 12h 13m
Length of Day
10h 30m
Waxing Crescent, 9% of the Moon is Illuminated
Oct 7
Waxing Crescent
Oct 11
First Quarter
Oct 18
Full
Oct 26
Last Quarter
Nov 3
New

Hourly Weather History & Observations

Time (AKDT) Temp. Windchill Dew Point Humidity Pressure Visibility Wind Dir Wind Speed Gust Speed Precip Events Conditions
12:16 AM 35.6 °F 31.7 °F 32.0 °F 87% 29.64 in 10.0 mi SSE 4.6 mph - N/A   Overcast
12:36 AM 35.6 °F 32.8 °F 32.0 °F 87% 29.65 in 10.0 mi SE 3.5 mph - N/A   Overcast
12:56 AM 35.6 °F - 30.2 °F 81% 29.65 in 10.0 mi Calm Calm - N/A   Mostly Cloudy
1:16 AM 35.6 °F - 32.0 °F 87% 29.65 in 10.0 mi Calm Calm - N/A   Overcast
1:36 AM 35.6 °F - 32.0 °F 87% 29.65 in 10.0 mi Calm Calm - N/A   Overcast
1:56 AM 35.6 °F - 33.8 °F 93% 29.64 in 10.0 mi Calm Calm - N/A   Overcast
2:16 AM 35.6 °F 32.8 °F 33.8 °F 93% 29.64 in 10.0 mi South 3.5 mph - N/A   Overcast
2:36 AM 37.4 °F 33.8 °F 33.8 °F 87% 29.64 in 10.0 mi South 4.6 mph - N/A   Overcast
2:56 AM 35.6 °F 30.7 °F 32.0 °F 87% 29.65 in 10.0 mi SSW 5.8 mph - N/A   Overcast
3:16 AM 35.6 °F - 32.0 °F 87% 29.64 in 10.0 mi Calm Calm - N/A   Overcast
3:36 AM 35.6 °F 29.9 °F 30.2 °F 81% 29.64 in 10.0 mi South 6.9 mph - N/A   Overcast
3:56 AM 33.8 °F 27.7 °F 30.2 °F 87% 29.64 in 10.0 mi South 6.9 mph - N/A   Scattered Clouds
4:16 AM 33.8 °F 30.8 °F 30.2 °F 87% 29.65 in 10.0 mi SE 3.5 mph - N/A   Mostly Cloudy
4:36 AM 33.8 °F - 30.2 °F 87% 29.64 in 10.0 mi Calm Calm - N/A   Overcast
4:56 AM 32.0 °F 28.7 °F 28.4 °F 87% 29.65 in 10.0 mi SSE 3.5 mph - N/A   Mostly Cloudy
5:16 AM 32.0 °F - 28.4 °F 87% 29.65 in 10.0 mi Calm Calm - N/A   Partly Cloudy
5:36 AM 32.0 °F 27.5 °F 28.4 °F 87% 29.65 in 10.0 mi South 4.6 mph - N/A   Clear
5:56 AM 33.8 °F 29.6 °F 30.2 °F 87% 29.65 in 10.0 mi SE 4.6 mph - N/A   Clear
6:16 AM 33.8 °F 29.6 °F 30.2 °F 87% 29.65 in 10.0 mi South 4.6 mph - N/A   Clear
6:36 AM 33.8 °F 28.6 °F 28.4 °F 81% 29.64 in 10.0 mi SE 5.8 mph - N/A   Clear
6:56 AM 33.8 °F 25.8 °F 30.2 °F 87% 29.64 in 10.0 mi ESE 10.4 mph - N/A   Clear
7:16 AM 35.6 °F 29.2 °F 30.2 °F 81% 29.64 in 10.0 mi SE 8.1 mph - N/A   Clear
7:36 AM 30.2 °F - 28.4 °F 93% 29.65 in 10.0 mi Calm Calm - N/A   Mostly Cloudy
7:56 AM 30.2 °F 25.4 °F 28.4 °F 93% 29.64 in 10.0 mi South 4.6 mph - N/A   Overcast
8:16 AM 33.8 °F 28.6 °F 30.2 °F 87% 29.64 in 10.0 mi SSE 5.8 mph - N/A   Overcast
8:36 AM 35.6 °F 28.0 °F 33.8 °F 93% 29.64 in 10.0 mi East 10.4 mph 16.1 mph N/A   Overcast
8:56 AM 35.6 °F 28.0 °F 32.0 °F 87% 29.64 in 10.0 mi East 10.4 mph - N/A   Overcast
9:16 AM 35.6 °F 28.6 °F 32.0 °F 87% 29.64 in 10.0 mi East 9.2 mph - N/A   Overcast
9:36 AM 35.6 °F 28.0 °F 33.8 °F 93% 29.64 in 10.0 mi East 10.4 mph - N/A   Overcast
9:56 AM 35.6 °F 28.0 °F 33.8 °F 93% 29.64 in 10.0 mi ESE 10.4 mph - N/A   Overcast
10:16 AM 35.6 °F 28.6 °F 33.8 °F 93% 29.64 in 10.0 mi East 9.2 mph 16.1 mph N/A   Overcast
10:36 AM 37.4 °F 29.8 °F 33.8 °F 87% 29.63 in 10.0 mi East 11.5 mph 18.4 mph N/A   Overcast
10:56 AM 35.6 °F 27.1 °F 32.0 °F 87% 29.63 in 10.0 mi East 12.7 mph 18.4 mph N/A   Overcast
11:16 AM 37.4 °F 28.9 °F 32.0 °F 81% 29.63 in 10.0 mi East 13.8 mph 17.3 mph N/A   Overcast
11:36 AM 37.4 °F 29.8 °F 33.8 °F 87% 29.64 in 10.0 mi ESE 11.5 mph - N/A   Overcast
11:56 AM 37.4 °F 30.8 °F 33.8 °F 87% 29.64 in 10.0 mi ESE 9.2 mph - N/A   Overcast
12:16 PM 37.4 °F 30.3 °F 33.8 °F 87% 29.64 in 10.0 mi ESE 10.4 mph - N/A   Overcast
12:36 PM 39.2 °F 32.5 °F 33.8 °F 81% 29.64 in 10.0 mi ESE 10.4 mph - N/A   Overcast
12:56 PM 39.2 °F 33.0 °F 33.8 °F 81% 29.64 in 10.0 mi SE 9.2 mph - N/A   Overcast
1:16 PM 39.2 °F 33.0 °F 33.8 °F 81% 29.64 in 10.0 mi SE 9.2 mph - N/A   Overcast
1:36 PM 39.2 °F 32.5 °F 33.8 °F 81% 29.65 in 10.0 mi SE 10.4 mph - N/A   Overcast
1:56 PM 39.2 °F 33.6 °F 35.6 °F 87% 29.65 in 10.0 mi SE 8.1 mph - N/A   Overcast
2:16 PM 39.2 °F 33.6 °F 35.6 °F 87% 29.64 in 10.0 mi SE 8.1 mph - N/A   Overcast
2:36 PM 39.2 °F 33.6 °F 35.6 °F 87% 29.64 in 10.0 mi SE 8.1 mph - N/A   Overcast
2:56 PM 39.2 °F 32.0 °F 35.6 °F 87% 29.64 in 10.0 mi SSE 11.5 mph - N/A   Overcast
3:16 PM 39.2 °F 33.0 °F 35.6 °F 87% 29.63 in 10.0 mi SE 9.2 mph - N/A   Overcast
3:36 PM 41.0 °F 35.8 °F 35.6 °F 81% 29.63 in 10.0 mi SE 8.1 mph - N/A   Overcast
3:56 PM 41.0 °F 34.7 °F 35.6 °F 81% 29.63 in 10.0 mi SSE 10.4 mph - N/A   Mostly Cloudy
4:16 PM 41.0 °F 34.7 °F 33.8 °F 76% 29.63 in 10.0 mi South 10.4 mph - N/A   Mostly Cloudy
4:36 PM 41.0 °F 33.5 °F 32.0 °F 70% 29.63 in 10.0 mi South 13.8 mph - N/A   Mostly Cloudy
4:56 PM 39.2 °F 30.8 °F 32.0 °F 75% 29.62 in 10.0 mi SSE 15.0 mph - N/A   Mostly Cloudy
5:16 PM 39.2 °F 32.5 °F 30.2 °F 70% 29.62 in 10.0 mi SSE 10.4 mph - N/A   Scattered Clouds
5:36 PM 39.2 °F 31.6 °F 30.2 °F 70% 29.62 in 10.0 mi SSE 12.7 mph - N/A   Mostly Cloudy
5:56 PM 39.2 °F 32.0 °F 33.8 °F 81% 29.62 in 10.0 mi SE 11.5 mph - N/A   Mostly Cloudy
6:16 PM 39.2 °F 31.6 °F 33.8 °F 81% 29.62 in 10.0 mi SE 12.7 mph - N/A   Overcast
6:36 PM 39.2 °F 32.5 °F 32.0 °F 75% 29.61 in 10.0 mi SE 10.4 mph - N/A   Overcast
6:56 PM 39.2 °F 34.2 °F 30.2 °F 70% 29.61 in 10.0 mi SSE 6.9 mph - N/A   Overcast
7:16 PM 37.4 °F 34.9 °F 30.2 °F 75% 29.60 in 10.0 mi ESE 3.5 mph - N/A   Overcast
7:36 PM 37.4 °F 34.9 °F 30.2 °F 75% 29.59 in 10.0 mi SSE 3.5 mph - N/A   Scattered Clouds
7:56 PM 35.6 °F 29.9 °F 28.4 °F 75% 29.59 in 10.0 mi East 6.9 mph - N/A   Clear
8:16 PM 33.8 °F 27.7 °F 28.4 °F 81% 29.59 in 10.0 mi East 6.9 mph - N/A   Scattered Clouds
8:36 PM 35.6 °F 29.2 °F 28.4 °F 75% 29.58 in 10.0 mi East 8.1 mph - N/A   Mostly Cloudy
8:56 PM 33.8 °F 28.6 °F 28.4 °F 81% 29.56 in 10.0 mi ENE 5.8 mph - N/A   Partly Cloudy
9:16 PM 33.8 °F 27.7 °F 28.4 °F 81% 29.55 in 10.0 mi East 6.9 mph - N/A   Clear
9:36 PM 35.6 °F 30.7 °F 30.2 °F 81% 29.54 in 10.0 mi NE 5.8 mph - N/A   Clear
9:56 PM 33.8 °F 28.6 °F 28.4 °F 81% 29.52 in 10.0 mi East 5.8 mph - N/A   Clear
10:16 PM 35.6 °F 31.7 °F 30.2 °F 81% 29.51 in 10.0 mi East 4.6 mph - N/A   Clear
10:36 PM 35.6 °F 29.2 °F 30.2 °F 81% 29.50 in 10.0 mi ESE 8.1 mph - N/A   Clear
10:56 PM 35.6 °F 27.5 °F 30.2 °F 81% 29.48 in 10.0 mi ESE 11.5 mph 17.3 mph N/A   Clear
11:16 PM 37.4 °F 28.5 °F 30.2 °F 75% 29.46 in 10.0 mi East 15.0 mph 21.9 mph N/A   Clear
11:36 PM 37.4 °F 30.3 °F 30.2 °F 75% 29.45 in 10.0 mi East 10.4 mph - N/A   Partly Cloudy
11:56 PM 37.4 °F 30.3 °F 30.2 °F 75% 29.44 in 10.0 mi East 10.4 mph 17.3 mph N/A   Clear